Regional Weather Roundup
Issued by NWS

Home | Current Version | Previous Version | Graphics & Text | Print | Product List | Glossary On
Versions: 1 2 3 4 5 6 7 8 9 10 11 12 13 14 15 16 17 18 19 20 21 22 23 24 25 26 27 28 29 30 31 32 33 34 35 36 37 38 39 40 41 42 43 44 45 46 47 48 49 50
000
ASUS45 KTFX 271819
RWRMT
MONTANA HOURLY WEATHER ROUNDUP
NATIONAL WEATHER SERVICE GREAT FALLS MT
1119 AM MST TUE JAN 27 2015

NOTE: "FAIR" INDICATES FEW OR NO CLOUDS BELOW 12000 FEET WITH NO
SIGNIFICANT WEATHER AND/OR OBSTRUCTIONS TO VISIBILITY.

* THESE STATIONS ARE NOT UNDER NWS QUALITY CONTROL. THEY DO NOT
   REPORT WEATHER SUCH AS PRECIPITATION OR FOG.

MTZ001>007-043-271900-
WEST OF THE DIVIDE
CITY           SKY/WX    TMP DP  RH WIND       PRES   REMARKS
KALISPELL      PTSUNNY   27  25  92 CALM      30.00R
MISSOULA       PTSUNNY   28  28 100 CALM      30.08S
BUTTE          PTSUNNY   36  28  73 CALM      30.05S
MULLAN PASS    CLOUDY    45  25  45 VRB5      30.02S
* ANACONDA     PTSUNNY   39  27  62 N/A        N/A
* ESSEX        N/A      N/A N/A N/A N/A        N/A
* EUREKA APT   PTSUNNY   36  30  79 CALM      29.99S
* HAMILTON APT PTSUNNY   36  30  79 N2        30.05S
* LIBBY APT    PTSUNNY   28  28 100 CALM      30.04R VSB M1/4
* LINCOLN      N/A       31  24  75 SE1        N/A
* LOOKOUT PASS N/A      N/A N/A N/A N/A        N/A
* POLSON       N/A       40  33  76 N/A        N/A
* RONAN APT    CLOUDY    28  27  96 N/A        N/A
* SEELEY LAKE  N/A       25  22  88 N/A        N/A
* THOMP F APT  CLOUDY    45  24  44 E4         N/A
$$

MTZ008-052>055-271900-
SOUTHWEST MONTANA
CITY           SKY/WX    TMP DP  RH WIND       PRES   REMARKS
BOZEMAN        PTCLDY    39  28  65 CALM      30.04S
DILLON         CLOUDY    46  28  50 S8        30.05F
* W YELLOWSTON PTSUNNY   21  19  92 N/A        N/A
* THREE FORKS  PTSUNNY   34 -53   1 N/A        N/A
* TWIN BRIDGES PTSUNNY   39  27  62 N/A        N/A
* BOULDER HILL N/A      N/A N/A N/A N/A        N/A
* MONIDA PASS  N/A      N/A N/A N/A N/A        N/A
* RAYNOLDS PAS N/A      N/A N/A N/A N/A        N/A
* WHITEHALL    N/A       40  30  68 E3         N/A
* WISE RIVER   N/A       27  23  85 NW4        N/A
$$

MTZ009>010-012-014-046-048-049-054-271900-
EAST SLOPES AND CENTRAL MONTANA
CITY           SKY/WX    TMP DP  RH WIND       PRES   REMARKS
CUT BANK       CLOUDY    50  27  41 SW9       29.87R
GREAT FALLS    PTSUNNY   61  28  29 SW16G24   29.91R
HELENA         PTCLDY    37  30  76 CALM      30.03S
MALMSTROM AFB  PTSUNNY   61  30  31 SW15G21   29.92R
* CONRAD       CLOUDY    52  28  40 S9         N/A
* DEARBORN     N/A      N/A N/A N/A N/A        N/A
* EAST GLACIER N/A      N/A N/A N/A N/A        N/A
* MONARCH      N/A      N/A N/A N/A N/A        N/A
* PENDROY      N/A      N/A N/A N/A N/A        N/A
* ROGERS PASS  N/A      N/A N/A N/A N/A        N/A
* SWEET GRASS  N/A      N/A N/A N/A N/A        N/A
* WHITE SULPH  N/A       54  26  34 S12G19     N/A
$$

MTZ011-013-016-021-035-040-045-047-050-051-271900-
NORTH CENTRAL MONTANA
CITY           SKY/WX    TMP DP  RH WIND       PRES   REMARKS
HAVRE          CLOUDY    48  34  59 SW14      29.85S
LEWISTOWN      PTSUNNY   52  30  43 SE5       29.93S
* CHINOOK      CLOUDY    37  32  82 E6        29.84F WCI  32
* MALTA APT    CLOUDY    37  32  82 N/A        N/A
* CHESTER      N/A       38  31  76 N/A        N/A
* DENTON       N/A      N/A N/A N/A N/A        N/A
* GEYSER       N/A      N/A N/A N/A N/A        N/A
* JUDITH GAP   N/A      N/A N/A N/A N/A        N/A
* LOMA         N/A      N/A N/A N/A N/A        N/A
$$

MTZ017>020-022>027-061-062-271900-
NORTHEAST MONTANA
CITY           SKY/WX    TMP DP  RH WIND       PRES   REMARKS
GLASGOW        CLOUDY    41  34  76 SE5       29.86S
GLENDIVE       PTCLDY    46  36  68 SE9       29.89F
JORDAN         PTSUNNY   45  37  74 W3        29.87F
SIDNEY         PTSUNNY   45  36  71 S7        29.88S
WOLF POINT     PTSUNNY   43  36  76 SW5       29.86S
* BEAVER HILL  N/A      N/A N/A N/A N/A        N/A
* CIRCLE       N/A       45  37  74 SW2        N/A
* LINDSAY DVD  N/A      N/A N/A N/A N/A        N/A
* NAVAJO       N/A      N/A N/A N/A N/A        N/A
* PLENTYWOOD A PTSUNNY   37  36  96 S5        29.82S WCI  33
* POPLAR APT   PTSUNNY   43  36  76 N/A       29.85F
* SACO         N/A      N/A N/A N/A N/A        N/A
* SCOBEY APT   CLOUDY    45  34  65 SE9        N/A
$$

MTZ028>042-056>058-271900-
SOUTHCENTRAL AND SOUTHEAST MONTANA
CITY           SKY/WX    TMP DP  RH WIND       PRES   REMARKS
BAKER          PTCLDY    54  34  47 W5        29.91F
BILLINGS       CLOUDY    54  28  37 SW13G23   29.94R
LIVINGSTON     PTCLDY    59  23  25 W24G31    29.98F
MILES CITY     PTCLDY    43  32  65 SE8       29.91F
* BIG TIMBER A PTSUNNY   54  25  33 W15       29.98S
* FORSYTH APT  PTCLDY    54  34  47 CALM      29.91S
* LAUREL APT   CLOUDY    55  28  35 SW16       N/A
* ROUNDUP APT  CLOUDY    55  27  34 S14G20     N/A
* ALZADA       N/A      N/A N/A N/A N/A        N/A
* HYSHAM       N/A      N/A N/A N/A N/A        N/A
* LAME DEER    N/A      N/A N/A N/A N/A        N/A
* REED POINT   N/A      N/A N/A N/A N/A        N/A
* ROSCOE HILL  N/A      N/A N/A N/A N/A        N/A
$$

REGIONAL REPORTS...DAKOTAS
CITY           SKY/WX    TMP DP  RH WIND       PRES   REMARKS
WILLISTON      PTSUNNY   43  34  71 S6        29.85R
DICKINSON      PTSUNNY   55  36  49 W12       29.84F
BEACH          SUNNY     50  36  59 W13       29.89S
CROSBY         SUNNY     45  39  80 SW9       29.80S
TIOGA          SUNNY     39  39 100 SW8       29.84S WCI  33
WATFORD CITY   SUNNY     43  36  76 SW12      29.83S
BISMARCK       PTCLDY    43  32  65 S6        29.89F
GRAND FORKS    FOG       28  27  96 S14       30.03F VSB 2    WCI  17
FARGO          FOG       30  28  92 SE16      30.06F WCI  19
BUFFALO SD     PTCLDY    57  30  36 W6        29.86F
$$

REGIONAL REPORTS...WYOMING/IDAHO/WASHINGTON
CITY           SKY/WX    TMP DP  RH WIND       PRES   REMARKS
GILLETTE       SUNNY     61  28  29 SW16G23   29.99R
SHERIDAN       SUNNY     57  34  42 CALM      29.95S
CODY           PTCLDY    50  30  46 N6        30.01F
YELLOWSTONE LA PTCLDY    21  18  88 SE3       30.25S
SALMON         CLOUDY   N/A N/A N/A CALM      30.17F VSB 1
MULLAN PASS    CLOUDY    45  25  45 VRB5      30.02S
SAND POINT     FOG      N/A N/A N/A CALM      30.04R VSB M1/4
SPOKANE        FOG       30  30 100 CALM      30.01R VSB M1/4
$$

REGIONAL REPORTS...ALBERTA
CITY           SKY/WX    TMP DP  RH WIND       PRES   REMARKS
CALGARY        PTSUNNY   54  25  33 SW7       29.76S
LETHBRIDGE     PTSUNNY   52  27  38 SW18      29.80F
MEDICINE HAT   CLOUDY    41  32  70 W5        29.80S
EDMONTON       FOG       30  28  92 N5        29.79R WCI  25
WATERTON GATE  N/A       54  19  25 SW13G18    N/A
CARDSTON       N/A       46  27  48 N5         N/A
MILK RIVER     N/A       43  30  60 W8         N/A
$$

REGIONAL REPORTS...SASKATCHEWAN
CITY           SKY/WX    TMP DP  RH WIND       PRES   REMARKS
SWIFT CURRENT  CLOUDY    39  34  82 SW3       29.77R
MOOSE JAW      CLOUDY    32  32 100 NW3       29.79S
REGINA         PTSUNNY   30  27  89 E3        29.78S
VAL MARIE      N/A       39  36  89 SW1        N/A
ASSINIBOIA     N/A       41  32  70 W8         N/A
CORONACH       N/A       45  34  65 SW1        N/A

$$




USA.gov is the U.S. government's official web portal to all federal, state and local government web resources and services.